Location: Leuk
(46.3174°N, 7.6341°E)
Time: 07:32:48
(UTC+00:00)

Landsat 5 - Pass Details

Date: 09 March 2021
Orbit: 529 x 652 km, 98.2° (Epoch: 18 April)

Event Time Altitude Azimuth Distance (km) Brightness Sun altitude
Rises 04:30:12 0° 190° (S) 2,658 6.6 -15.2°
Reaches altitude 10° 04:32:29 10° 202° (SSW) 1,779 5.6 -14.8°
Maximum altitude 04:35:51 29° 264° (W) 1,014 4.1 -14.2°
Drops below altitude 10° 04:39:17 10° 325° (NW) 1,827 5.7 -13.7°
Sets 04:41:40 0° 337° (NNW) 2,744 6.7 -13.2°
